EW0259 Weather Reports


time (UTC)temp
C
wind
direction
speed
KPH
gust
KPH
rain 1hr
cm
rain 24hr
cm
rain mn
cm
humidity
%
barometer
mb
20260507060726 11 300 0.0 3.2 0.00 0.00 0.00 86 1022.1
20260507060254 11 342 0.0 4.8 0.00 0.00 0.00 86 1022.1
20260507055729 11 229 1.6 4.8 0.00 0.00 0.00 86 1022.2
20260507055237 11 247 0.0 8.0 0.00 0.00 0.00 86 1022.2
20260507054725 11 351 3.2 8.0 0.00 0.00 0.00 86 1022.1
20260507054253 11 5 0.0 3.2 0.00 0.00 0.00 86 1022.2
20260507053810 11 48 0.0 3.2 0.00 0.00 0.00 86 1022.1
20260507053738 11 48 0.0 3.2 0.00 0.00 0.00 86 1022.1
20260507053306 11 17 1.6 6.4 0.00 0.00 0.00 85 1022.1
20260507052721 11 305 1.6 6.4 0.00 0.00 0.00 85 1022.1
20260507052229 11 273 1.6 4.8 0.00 0.00 0.00 84 1022.2
20260507051737 11 317 1.6 4.8 0.00 0.00 0.00 83 1022.1
20260507051305 12 360 1.6 4.8 0.00 0.00 0.00 83 1022.2
20260507051233 12 360 1.6 4.8 0.00 0.00 0.00 83 1022.2
20260507050724 12 299 0.0 4.8 0.00 0.00 0.00 82 1022.2
20260507050232 12 78 0.0 4.8 0.00 0.00 0.00 82 1022.1
20260507045739 12 114 1.6 4.8 0.00 0.00 0.00 82 1022.2
20260507045227 12 40 0.0 0.0 0.00 0.00 0.00 81 1022.2
20260507044755 12 42 0.0 0.0 0.00 0.00 0.00 81 1022.2
20260507044723 12 42 0.0 0.0 0.00 0.00 0.00 81 1022.2
20260507044231 12 42 0.0 0.0 0.00 0.00 0.00 81 1022.2
20260507043739 12 346 0.0 0.0 0.00 0.00 0.00 81 1022.1
20260507043307 12 47 0.0 1.6 0.00 0.00 0.00 81 1022.0
20260507042722 12 291 0.0 1.6 0.00 0.00 0.00 81 1022.1
20260507042229 12 288 0.0 0.0 0.00 0.00 0.00 81 1022.0
20260507041736 12 288 0.0 0.0 0.00 0.00 0.00 81 1022.0
20260507041224 12 294 0.0 0.0 0.00 0.00 0.00 81 1022.2
20260507040736 12 293 0.0 0.0 0.00 0.00 0.00 80 1022.2
20260507040224 12 294 0.0 3.2 0.00 0.00 0.00 81 1022.1
20260507035731 12 293 0.0 3.2 0.00 0.00 0.00 80 1022.0
20260507035259 12 52 0.0 0.0 0.00 0.00 0.00 80 1022.1
20260507035227 12 52 0.0 0.0 0.00 0.00 0.00 80 1022.1
20260507034735 12 92 0.0 3.2 0.00 0.00 0.00 80 1022.0
20260507034223 12 84 0.0 4.8 0.00 0.00 0.00 80 1021.9
20260507033811 12 266 0.0 4.8 0.00 0.00 0.00 80 1021.9
20260507033228 12 266 0.0 3.2 0.00 0.00 0.00 80 1021.8
20260507032735 12 265 0.0 3.2 0.00 0.00 0.00 79 1021.8
20260507032305 12 298 0.0 4.8 0.00 0.00 0.00 79 1021.7
20260507031739 12 290 0.0 4.8 0.00 0.00 0.00 79 1021.6
20260507031227 12 81 0.0 3.2 0.00 0.00 0.00 78 1021.6
20260507030755 12 198 0.0 4.8 0.00 0.00 0.00 78 1021.6
20260507030311 12 271 0.0 4.8 0.00 0.00 0.00 78 1021.5
20260507025726 12 288 0.0 3.2 0.00 0.00 0.00 78 1021.6
20260507025238 13 65 0.0 8.0 0.00 0.00 0.00 78 1021.5
20260507024726 13 331 0.0 6.4 0.00 0.00 0.00 78 1021.7
20260507024233 13 274 1.6 6.4 0.00 0.00 0.00 77 1021.7
20260507023721 13 315 1.6 3.2 0.00 0.00 0.00 77 1021.5
20260507023229 13 313 1.6 3.2 0.00 0.00 0.00 77 1021.4
20260507022735 13 109 0.0 3.2 0.00 0.00 0.00 77 1021.4
20260507022222 13 311 0.0 3.2 0.00 0.00 0.00 77 1021.4
20260507021810 13 319 0.0 3.2 0.00 0.00 0.00 77 1021.4
20260507021226 13 298 0.0 4.8 0.00 0.00 0.00 76 1021.3
20260507020734 13 143 1.6 4.8 0.00 0.00 0.00 77 1021.4
20260507020301 13 242 1.6 4.8 0.00 0.00 0.00 76 1021.5
20260507015721 13 313 0.0 3.2 0.00 0.00 0.00 76 1021.5
20260507015228 13 251 0.0 3.2 0.00 0.00 0.00 77 1021.4
20260507014735 13 304 0.0 3.2 0.00 0.00 0.00 77 1021.4
20260507014303 13 252 1.6 4.8 0.00 0.00 0.00 77 1021.4
20260507013740 13 295 1.6 4.8 0.00 0.00 0.00 77 1021.3
20260507013308 13 355 1.6 4.8 0.00 0.00 0.00 77 1021.4
20260507013236 13 355 1.6 4.8 0.00 0.00 0.00 77 1021.4
20260507012723 13 61 1.6 4.8 0.00 0.00 0.00 77 1021.4
20260507012231 13 68 0.0 3.2 0.00 0.00 0.00 78 1021.4
20260507011739 13 68 1.6 3.2 0.00 0.00 0.00 77 1021.4
20260507011227 13 261 0.0 8.0 0.00 0.00 0.00 77 1021.4
20260507010735 13 273 3.2 11.3 0.00 0.00 0.00 77 1021.4
20260507010303 13 292 4.8 12.9 0.00 0.00 0.00 76 1021.4
20260507005738 13 262 4.8 12.9 0.00 0.00 0.00 75 1021.5
20260507005230 13 259 3.2 6.4 0.00 0.00 0.00 76 1021.6
20260507004738 13 77 0.0 4.8 0.00 0.00 0.00 76 1021.6
20260507004305 13 293 1.6 6.4 0.00 0.00 0.00 76 1021.6
20260507003802 13 287 1.6 6.4 0.00 0.00 0.00 76 1021.6
20260507003239 13 125 1.6 9.7 0.00 0.00 0.00 76 1021.6
20260507002726 13 242 3.2 9.7 0.00 0.00 0.00 75 1021.6
20260507002234 13 203 1.6 8.0 0.00 0.00 0.00 75 1021.6
20260507001802 13 196 1.6 11.3 0.00 0.00 0.00 75 1021.6
20260507001730 13 196 1.6 11.3 0.00 0.00 0.00 75 1021.6
20260507001258 13 282 4.8 11.3 0.00 0.00 0.00 75 1021.7
20260507000734 13 19 1.6 4.8 0.00 0.00 0.00 75 1021.7
20260507000222 13 346 0.0 8.0 0.00 0.00 0.00 75 1021.6
20260506235729 13 307 3.2 8.0 0.00 0.00 0.00 74 1021.6
20260506235237 13 108 1.6 6.4 0.00 0.00 0.00 74 1021.6
20260506234725 13 261 0.0 6.4 0.00 0.00 0.00 76 1021.6
20260506234237 13 109 1.6 6.4 0.00 0.00 0.00 76 1021.6
20260506233724 13 318 1.6 8.0 0.00 0.00 0.00 75 1021.5
20260506233232 13 208 1.6 9.7 0.00 0.00 0.00 75 1021.7
20260506232739 13 285 0.0 9.7 0.00 0.00 0.00 76 1021.7
20260506232226 13 82 1.6 6.4 0.00 0.00 0.00 76 1021.7
20260506231754 13 251 1.6 4.8 0.00 0.00 0.00 76 1021.7
20260506231230 13 136 1.6 6.4 0.00 0.00 0.00 76 1021.7
20260506230758 13 311 3.2 6.4 0.00 0.00 0.00 76 1021.7
20260506230726 13 311 3.2 6.4 0.00 0.00 0.00 76 1021.7
20260506230233 13 69 0.0 4.8 0.00 0.00 0.00 76 1021.7
20260506225740 13 116 0.0 3.2 0.00 0.00 0.00 76 1021.7
20260506225228 13 126 0.0 4.8 0.00 0.00 0.00 76 1021.7
20260506224756 13 221 1.6 4.8 0.00 0.00 0.00 76 1021.8
20260506224233 13 129 3.2 4.8 0.00 0.00 0.00 76 1021.8
20260506223725 13 238 0.0 4.8 0.00 0.00 0.00 76 1021.9
20260506223233 13 147 0.0 3.2 0.00 0.00 0.00 77 1021.9
20260506222800 13 94 1.6 4.8 0.00 0.00 0.00 77 1021.9
20260506222236 13 303 0.0 11.3 0.00 0.00 0.00 78 1022.0
20260506221804 13 25 1.6 11.3 0.00 0.00 0.00 77 1022.0
20260506221240 13 286 3.2 4.8 0.00 0.00 0.00 77 1022.0
20260506220808 12 318 1.6 8.0 0.00 0.00 0.00 78 1022.0
20260506220324 12 163 3.2 8.0 0.00 0.00 0.00 77 1022.0
20260506215726 12 278 1.6 9.7 0.00 0.00 0.00 78 1022.0
20260506215254 12 276 3.2 9.7 0.00 0.00 0.00 77 1022.0
20260506214731 12 336 1.6 9.7 0.00 0.00 0.00 76 1022.0
20260506214259 13 294 1.6 6.4 0.00 0.00 0.00 77 1021.9
20260506213736 13 279 1.6 6.4 0.00 0.00 0.00 77 1021.9
20260506213304 13 9 0.0 4.8 0.00 0.00 0.00 78 1022.0
20260506213232 13 9 0.0 4.8 0.00 0.00 0.00 78 1022.0
20260506212738 13 83 0.0 3.2 0.00 0.00 0.00 78 1022.0
20260506212307 12 340 1.6 3.2 0.00 0.00 0.00 79 1022.0
20260506211722 12 279 1.6 6.4 0.00 0.00 0.00 78 1022.0
20260506211230 12 266 3.2 8.0 0.00 0.00 0.00 78 1022.0
20260506210722 12 267 3.2 8.0 0.00 0.00 0.00 79 1022.0
20260506210230 12 251 0.0 3.2 0.00 0.00 0.00 79 1021.9
20260506205737 12 110 1.6 3.2 0.00 0.00 0.00 79 1022.0
20260506205306 12 46 0.0 3.2 0.00 0.00 0.00 80 1021.9
20260506204721 12 148 1.6 3.2 0.00 0.00 0.00 79 1021.9
20260506204309 12 273 1.6 4.8 0.00 0.00 0.00 80 1021.9
20260506203725 12 287 1.6 4.8 0.00 0.00 0.00 81 1022.0
20260506203233 12 15 0.0 3.2 0.00 0.00 0.00 82 1021.9
20260506202753 12 317 1.6 3.2 0.00 0.00 0.00 82 1021.8
20260506202309 12 5 0.0 3.2 0.00 0.00 0.00 83 1021.8
20260506201725 12 20 0.0 3.2 0.00 0.00 0.00 82 1021.7
20260506201233 12 246 0.0 3.2 0.00 0.00 0.00 81 1021.8
20260506200801 12 166 0.0 0.0 0.00 0.00 0.00 84 1021.7
20260506200729 12 166 0.0 0.0 0.00 0.00 0.00 84 1021.7
20260506200257 12 92 0.0 0.0 0.00 0.00 0.00 84 1021.8
20260506200225 12 92 0.0 0.0 0.00 0.00 0.00 84 1021.8
20260506195732 12 355 0.0 3.2 0.00 0.00 0.00 84 1021.8
20260506195259 12 355 0.0 4.8 0.00 0.00 0.00 83 1021.8
20260506195228 12 355 0.0 4.8 0.00 0.00 0.00 83 1021.8
20260506194755 12 279 3.2 4.8 0.00 0.00 0.00 83 1021.8
20260506194232 12 290 1.6 3.2 0.00 0.00 0.00 84 1021.7
20260506193740 12 270 0.0 3.2 0.00 0.00 0.00 85 1021.7
20260506193228 12 261 1.6 3.2 0.00 0.00 0.00 85 1021.6
20260506192739 11 279 1.6 9.7 0.00 0.00 0.00 85 1021.6
20260506192307 11 279 4.8 9.7 0.00 0.00 0.00 84 1021.6
20260506191724 12 296 0.0 6.4 0.00 0.00 0.00 85 1021.6
20260506191232 12 284 1.6 6.4 0.00 0.00 0.00 86 1021.6
20260506190740 12 296 3.2 6.4 0.00 0.00 0.00 85 1021.6
20260506190228 12 274 3.2 9.7 0.00 0.00 0.00 86 1021.6
20260506185755 12 345 1.6 4.8 0.00 0.00 0.00 86 1021.5
20260506185232 12 57 1.6 4.8 0.00 0.00 0.00 87 1021.6
20260506184800 12 230 0.0 9.7 0.00 0.00 0.00 87 1021.6
20260506184236 12 230 3.2 9.7 0.00 0.00 0.00 86 1021.5
20260506183724 12 316 0.0 3.2 0.00 0.00 0.00 87 1021.5
20260506183232 12 345 1.6 3.2 0.00 0.00 0.00 87 1021.5
20260506182723 12 342 1.6 4.8 0.00 0.00 0.00 87 1021.4
20260506182231 12 288 1.6 4.8 0.00 0.00 0.00 88 1021.2
20260506181739 12 292 1.6 4.8 0.00 0.00 0.00 88 1021.2
20260506181227 12 355 0.0 3.2 0.00 0.00 0.00 88 1021.2
20260506180755 12 331 0.0 0.0 0.00 0.00 0.00 89 1021.1
20260506180723 12 331 0.0 0.0 0.00 0.00 0.00 89 1021.1
20260506180231 12 292 0.0 0.0 0.00 0.00 0.00 89 1021.2
20260506175757 12 148 0.0 3.2 0.00 0.00 0.00 90 1021.2
20260506175234 12 290 0.0 3.2 0.00 0.00 0.00 89 1021.1
20260506174721 12 285 0.0 3.2 0.00 0.00 0.00 90 1021.1
20260506174309 12 274 1.6 3.2 0.00 0.00 0.00 90 1021.4
20260506173726 12 42 0.0 0.0 0.00 0.00 0.00 90 1021.3
20260506173234 12 283 0.0 0.0 0.00 0.00 0.00 90 1021.4
20260506172801 11 284 0.0 3.2 0.00 0.00 0.00 90 1021.3
20260506172258 11 228 1.6 3.2 0.00 0.00 0.00 90 1021.4
20260506171755 11 273 1.6 3.2 0.00 0.00 0.00 91 1021.4
20260506171723 11 273 1.6 3.2 0.00 0.00 0.00 91 1021.4
20260506171311 11 298 1.6 4.8 0.00 0.00 0.00 91 1021.3
20260506170728 11 283 0.0 4.8 0.00 0.00 0.00 90 1021.3
20260506170256 11 248 1.6 4.8 0.00 0.00 0.00 90 1021.2
20260506170224 11 248 1.6 4.8 0.00 0.00 0.00 90 1021.2
20260506165730 11 254 1.6 3.2 0.00 0.00 0.00 90 1021.2
20260506165222 11 146 0.0 3.2 0.00 0.00 0.00 91 1021.3
20260506164810 11 355 0.0 3.2 0.00 0.00 0.00 92 1021.2
20260506164306 11 198 0.0 3.2 0.00 0.00 0.00 92 1020.9
20260506163723 11 125 0.0 3.2 0.00 0.00 0.00 93 1020.8
20260506163231 11 97 1.6 3.2 0.00 0.00 0.00 93 1020.6
20260506162738 11 119 0.0 3.2 0.00 0.00 0.00 93 1020.7
20260506162226 11 101 0.0 3.2 0.00 0.00 0.00 93 1020.6
20260506161734 11 97 0.0 3.2 0.00 0.00 0.00 94 1020.6
20260506161221 11 82 0.0 1.6 0.00 0.00 0.00 93 1020.6
20260506160729 11 85 0.0 3.2 0.00 0.00 0.00 93 1020.7
20260506160256 11 107 1.6 3.2 0.00 0.00 0.00 92 1020.8
20260506155812 11 314 0.0 3.2 0.00 0.00 0.00 92 1020.9
20260506155228 11 251 0.0 3.2 0.00 0.00 0.00 92 1020.9
20260506154736 11 258 0.0 0.0 0.00 0.00 0.00 92 1020.9
20260506154227 11 244 0.0 0.0 0.00 0.00 0.00 93 1021.0
20260506153735 11 240 0.0 0.0 0.00 0.00 0.00 93 1020.9
20260506153223 11 240 0.0 1.6 0.00 0.00 0.00 92 1020.7
20260506152810 11 240 0.0 3.2 0.00 0.00 0.00 92 1020.8
20260506152306 11 105 0.0 3.2 0.00 0.00 0.00 92 1020.6
20260506151722 11 113 1.6 3.2 0.00 0.00 0.00 92 1020.5
20260506151230 11 225 0.0 3.2 0.00 0.00 0.00 92 1020.6
20260506150738 11 286 0.0 3.2 0.00 0.00 0.00 91 1020.7
20260506150226 11 216 0.0 3.2 0.00 0.00 0.00 91 1020.7
20260506145733 11 210 0.0 3.2 0.00 0.00 0.00 91 1020.8
20260506145301 11 283 1.6 3.2 0.00 0.00 0.00 91 1020.8
20260506144737 11 204 0.0 4.8 0.00 0.00 0.00 91 1020.9
20260506144228 11 58 0.0 4.8 0.00 0.00 0.00 92 1020.7
20260506143756 11 121 0.0 3.2 0.00 0.00 0.00 92 1020.6
20260506143232 11 118 0.0 3.2 0.00 0.00 0.00 92 1020.5
20260506142739 11 89 1.6 4.8 0.00 0.00 0.00 92 1020.3
20260506142226 11 118 1.6 4.8 0.00 0.00 0.00 92 1020.3
20260506141753 11 121 0.0 3.2 0.00 0.00 0.00 92 1020.4
20260506141722 11 121 0.0 3.2 0.00 0.00 0.00 92 1020.4
20260506141230 11 121 0.0 3.2 0.00 0.00 0.00 92 1020.4
20260506140758 11 161 0.0 3.2 0.00 0.00 0.00 92 1020.6
20260506140234 11 109 0.0 3.2 0.00 0.00 0.00 92 1020.7
20260506135740 11 94 1.6 3.2 0.00 0.00 0.00 92 1020.4
20260506135228 11 66 0.0 3.2 0.00 0.00 0.00 92 1020.4
20260506134736 11 138 0.0 3.2 0.00 0.00 0.00 92 1020.5
20260506134224 11 144 1.6 3.2 0.00 0.00 0.00 92 1020.5
20260506133736 11 92 0.0 3.2 0.00 0.00 0.00 92 1020.3
20260506133224 11 273 0.0 3.2 0.00 0.00 0.00 92 1020.2
20260506132731 11 252 0.0 3.2 0.00 0.00 0.00 91 1020.4
20260506132238 11 94 0.0 3.2 0.00 0.00 0.00 91 1020.3
20260506131806 11 94 0.0 3.2 0.00 0.00 0.00 91 1019.9
20260506131301 11 116 1.6 3.2 0.00 0.00 0.00 92 1020.0
20260506130738 11 94 0.0 3.2 0.00 0.00 0.00 91 1020.0
20260506130305 11 181 0.0 0.0 0.00 0.00 0.00 91 1020.1
20260506125801 11 191 0.0 0.0 0.00 0.00 0.00 91 1020.1
20260506125257 11 191 0.0 0.0 0.00 0.00 0.00 91 1019.9
20260506125225 11 191 0.0 0.0 0.00 0.00 0.00 91 1019.9
20260506124733 11 155 0.0 0.0 0.00 0.00 0.00 91 1019.9
20260506124301 11 155 0.0 0.0 0.00 0.00 0.00 91 1019.9
20260506123737 11 153 0.0 0.0 0.00 0.00 0.00 90 1019.9
20260506123225 11 159 0.0 0.0 0.00 0.00 0.00 90 1019.9
20260506122812 11 159 0.0 0.0 0.00 0.00 0.00 90 1019.7
20260506122228 11 159 0.0 0.0 0.00 0.00 0.00 90 1019.7
20260506121736 11 179 0.0 0.0 0.00 0.00 0.00 90 1019.7
20260506121228 11 179 0.0 0.0 0.00 0.00 0.00 90 1019.7
20260506120736 11 179 0.0 0.0 0.00 0.00 0.00 90 1019.7
20260506120223 11 179 0.0 0.0 0.00 0.00 0.00 89 1019.6
20260506115810 11 301 0.0 3.2 0.00 0.00 0.00 89 1019.5
20260506115738 11 301 0.0 3.2 0.00 0.00 0.00 89 1019.5
20260506115226 11 169 0.0 3.2 0.00 0.00 0.00 89 1019.5
20260506114734 11 71 0.0 3.2 0.00 0.00 0.00 88 1019.5
20260506114222 11 108 0.0 3.2 0.00 0.00 0.00 88 1019.6
20260506113810 11 141 0.0 3.2 0.00 0.00 0.00 87 1019.5
20260506113738 11 141 0.0 3.2 0.00 0.00 0.00 87 1019.5
20260506113306 11 140 0.0 3.2 0.00 0.00 0.00 87 1019.6
20260506113234 11 140 0.0 3.2 0.00 0.00 0.00 87 1019.6
20260506112721 11 140 0.0 0.0 0.00 0.00 0.00 86 1019.6
20260506112229 11 140 0.0 0.0 0.00 0.00 0.00 86 1019.6
20260506111737 11 140 0.0 0.0 0.00 0.00 0.00 86 1019.6
20260506111225 11 140 0.0 1.6 0.00 0.00 0.00 86 1019.6
20260506110737 11 157 0.0 0.0 0.00 0.00 0.00 86 1019.5
20260506110225 11 148 0.0 0.0 0.00 0.00 0.00 86 1019.4
20260506105732 11 177 0.0 0.0 0.00 0.00 0.00 86 1019.4
20260506105240 11 159 0.0 0.0 0.00 0.00 0.00 86 1019.4
20260506104728 11 159 0.0 0.0 0.00 0.00 0.00 86 1019.3
20260506104236 11 157 0.0 0.0 0.00 0.00 0.00 86 1019.3
20260506103724 11 156 0.0 0.0 0.00 0.00 0.00 86 1019.3
20260506103311 12 271 0.0 0.0 0.00 0.00 0.00 86 1019.3
20260506102736 12 275 0.0 0.0 0.00 0.00 0.00 85 1019.3
20260506102224 12 275 0.0 0.0 0.00 0.00 0.00 85 1019.2
20260506101732 12 275 0.0 3.2 0.00 0.00 0.00 85 1019.1
20260506101224 12 275 0.0 1.6 0.00 0.00 0.00 85 1019.1
20260506100732 12 123 0.0 3.2 0.00 0.00 0.00 85 1019.0
20260506100240 12 123 0.0 3.2 0.00 0.00 0.00 85 1018.9
20260506095727 12 322 0.0 3.2 0.00 0.00 0.00 85 1018.8
20260506095235 12 45 1.6 3.2 0.00 0.00 0.00 85 1018.8
20260506094803 12 290 0.0 4.8 0.00 0.00 0.00 84 1018.8
20260506094239 12 260 0.0 4.8 0.00 0.00 0.00 84 1018.8
20260506093727 12 114 1.6 4.8 0.00 0.00 0.00 85 1018.7
20260506093234 12 283 0.0 3.2 0.00 0.00 0.00 85 1018.7
20260506092721 12 283 1.6 3.2 0.00 0.00 0.00 85 1018.7
20260506092309 12 9 0.0 3.2 0.00 0.00 0.00 85 1018.7
20260506091730 12 312 0.0 3.2 0.00 0.00 0.00 86 1018.6
20260506091238 12 274 0.0 3.2 0.00 0.00 0.00 86 1018.6
20260506090806 12 230 0.0 1.6 0.00 0.00 0.00 86 1018.5
20260506090241 12 273 0.0 1.6 0.00 0.00 0.00 86 1018.5
20260506085728 12 194 0.0 1.6 0.00 0.00 0.00 86 1018.4
20260506085253 12 217 1.6 1.6 0.00 0.00 0.00 87 1018.5
20260506084810 12 130 0.0 0.0 0.00 0.00 0.00 87 1018.4
20260506084738 12 130 0.0 0.0 0.00 0.00 0.00 87 1018.4
20260506084226 12 130 0.0 0.0 0.00 0.00 0.00 87 1018.3
20260506083734 12 130 0.0 0.0 0.00 0.00 0.00 87 1018.3
20260506083222 12 130 0.0 0.0 0.00 0.00 0.00 87 1018.2
20260506082729 12 130 0.0 1.6 0.00 0.00 0.00 86 1018.3
20260506082237 12 130 0.0 3.2 0.00 0.00 0.00 87 1018.4
20260506081805 12 130 0.0 3.2 0.00 0.00 0.00 87 1018.4
20260506081301 12 304 0.0 3.2 0.00 0.00 0.00 87 1018.4
20260506080737 12 304 0.0 3.2 0.00 0.00 0.00 87 1018.4
20260506080229 12 260 0.0 3.2 0.00 0.00 0.00 88 1018.3
20260506073240 11 121 0.0 3.2 0.00 0.00 0.00 90 1018.1
20260506072807 11 121 0.0 3.2 0.00 0.00 0.00 90 1018.1
20260506072735 11 121 0.0 3.2 0.00 0.00 0.00 90 1018.1
20260506072305 11 111 0.0 0.0 0.00 0.00 0.00 90 1018.1
20260506071739 11 111 0.0 0.0 0.00 0.00 0.00 90 1018.2
20260506071227 11 111 0.0 0.0 0.00 0.00 0.00 90 1018.1
20260506070734 11 111 0.0 0.0 0.00 0.00 0.00 90 1018.1
20260506070222 11 113 0.0 0.0 0.00 0.00 0.00 90 1018.1
20260506062301 11 196 0.0 0.0 0.00 0.00 0.00 90 1017.6
20260506061737 11 196 0.0 0.0 0.00 0.00 0.00 90 1017.5
20260506061225 11 196 0.0 0.0 0.00 0.00 0.00 90 1017.5